Location: Nijmegen RU
(51.8233°N, 354.1314°E)
Time: 07:37:28
(UTC+02:00)

OTV 5 (USA 277) - Visible Passes

Search period start: 24 October 2019 00:00
Search period end: 02 November 2019 23:00
Orbit: 310 x 324 km, 54.5° (Epoch: 17 October)

Date Brightness Start Highest point End Pass type
(mag) Time Alt. Az. Time Alt. Az. Time Alt. Az.
29 Oct ? 19:52:32 10° S 19:53:10 14° S 19:53:10 14° S visible
30 Oct ? 20:06:24 10° SW 20:07:33 21° SSW 20:07:33 21° SSW visible
31 Oct ? 18:48:03 10° S 18:49:33 14° SE 18:50:56 10° ESE visible
31 Oct ? 20:20:43 10° WSW 20:21:50 21° WSW 20:21:50 21° WSW visible
01 Nov ? 19:01:29 10° SSW 19:03:52 27° SE 19:05:08 19° E visible
01 Nov ? 20:35:17 10° W 20:36:01 16° W 20:36:01 16° W visible
02 Nov ? 19:15:37 10° SW 19:18:17 53° SSE 19:19:15 32° E visible
02 Nov ? 20:49:58 10° W 20:50:08 11° W 20:50:08 11° W visible
